Dewpoint
61 61 54 52 42 42 40 40 36 25 27 33 41 42 44 47 46 43 54 56 59 60 60 60 62 61 60 58 58 58 57 57 56 56 56 55 55 55 55 55 55 55 55 55 54 55 55 55 53
56 55 49 46 39 34 34 37 27 25 32 43 44 44 45 46 52 53 54 57 58 59 59 59 61 61 59 58 58 57 56 56 55 55 55 55 54 54 54 54 54 54 53 54 55 55 53 51 49
48 50 45 39 37 35 35 35 31 26 35 33 38 42 47 49 52 53 55 57 59 58 58 58 62 61 57 58 57 56 55 55 54 54 55 54 53 52 52 52 52 52 52 53 55 52 50 48 47
48 46 43 34 32 33 32 32 32 26 29 36 40 42 47 50 52 54 56 57 57 57 58 61 62 60 57 57 57 55 54 54 54 54 54 54 50 51 50 50 50 51 52 55 52 50 48 46 45
41 39 33 30 29 29 25 16 15 20 34 41 41 45 47 53 54 55 56 57 56 58 59 60 61 60 57 56 56 55 52 53 52 52 51 52 52 48 49 49 49 49 52 52 50 48 47 45 45
40 34 29 27 27 23 14 15 20 24 39 43 43 44 49 53 53 54 55 56 57 58 59 58 59 58 57 56 55 54 51 52 52 52 50 51 50 47 50 49 48 45 48 49 48 47 46 45 45
36 31 28 29 23 16 11 12 18 33 35 38 43 44 50 52 54 55 56 57 57 57 58 56 54 55 57 56 54 52 51 52 50 50 47 47 46 46 49 48 43 43 44 44 46 46 45 44 45
36 30 27 25 22 17 12 20 36 35 36 41 45 45 47 51 55 56 56 56 56 56 56 55 54 54 53 52 54 50 51 51 51 47 47 46 46 46 49 47 42 40 41 42 45 44 43 44 46
24 18 18 20 20 15 12 25 36 41 44 46 44 46 51 54 55 54 54 54 55 55 54 54 52 52 52 52 52 50 51 49 47 46 46 45 41 42 45 47 41 40 38 40 45 44 43 44 45
17 17 17 20 17 10 25 27 29 30 41 45 48 53 54 54 54 53 53 53 53 53 53 52 52 52 52 52 50 47 47 48 46 45 43 42 41 41 43 47 42 41 40 41 44 45 45 44 39
17 16 17 17 12 14 25 26 27 29 31 45 47 51 53 53 53 52 52 52 52 52 52 52 51 51 51 51 49 47 47 47 47 46 43 43 44 44 43 40 41 39 42 40 42 44 43 40 37
13 14 13 12 20 17 23 26 26 30 32 45 48 49 51 52 52 52 52 52 52 52 51 51 51 49 49 50 49 48 47 47 47 47 47 47 43 42 41 41 39 39 39 39 40 42 42 40 38
15 14 13 13 15 19 26 25 25 30 35 44 47 48 48 49 52 52 51 51 51 50 49 50 50 48 49 49 48 48 47 48 47 48 49 47 45 44 43 41 40 41 40 40 40 40 38 38 36
15 17 13 11 15 21 24 24 24 27 40 45 46 46 47 47 49 51 50 50 50 48 48 47 47 47 48 48 48 48 48 48 49 49 49 47 46 45 44 43 43 42 41 39 38 37 38 37 36
18 15 15 13 17 24 27 26 27 29 32 36 42 43 44 45 47 50 51 52 51 49 46 45 45 46 45 46 45 45 46 45 45 47 48 48 47 45 44 43 43 43 42 41 39 38 37 36 36
20 18 14 14 18 22 27 27 30 32 33 33 40 41 43 45 46 48 50 49 48 46 44 45 45 46 45 45 47 45 45 46 44 43 45 48 48 46 45 44 44 44 43 42 40 39 37 37 37
18 14 14 14 27 23 27 28 31 38 39 40 41 42 43 45 46 47 47 47 46 43 43 45 46 46 47 46 47 45 45 45 45 45 45 47 48 48 47 46 45 44 43 41 40 39 39 37 37
19 16 14 17 27 30 30 31 34 37 38 41 42 43 43 44 45 47 48 47 47 47 46 45 45 46 46 47 46 46 47 46 47 47 47 47 47 49 48 46 46 44 43 40 39 38 39 38 37
16 16 21 25 30 34 35 35 34 35 38 40 42 43 44 45 46 48 48 48 48 48 47 48 48 48 47 45 45 46 46 46 47 48 47 47 47 47 45 44 45 45 42 40 38 37 36 38 38
17 19 20 30 34 35 36 36 37 38 36 39 40 42 44 45 48 49 49 51 51 51 49 46 47 48 46 49 49 47 46 46 45 45 44 44 45 46 46 46 47 46 42 40 38 38 37 38 38
15 20 20 19 34 35 34 36 37 40 37 38 39 41 43 43 43 45 48 49 48 47 45 44 45 47 48 49 49 48 46 45 43 43 42 42 38 39 40 42 42 41 39 38 37 38 37 36 36
18 24 23 21 21 21 34 31 36 38 38 34 35 38 41 43 43 44 44 44 44 45 46 47 46 43 40 36 37 40 40 39 40 40 39 37 36 36 37 37 38 39 40 38 37 37 37 37 35
21 28 25 24 23 28 33 30 33 36 36 34 36 36 37 38 39 39 41 41 41 39 42 41 36 34 33 32 33 33 33 34 35 36 35 35 36 36 35 35 35 36 38 39 38 37 36 37 36
31 31 31 33 28 28 33 29 30 33 37 34 35 35 35 35 35 35 37 36 35 34 34 35 33 31 32 32 31 32 32 32 32 32 32 34 35 36 36 36 36 35 35 35 36 36 36 36 36
33 29 22 24 25 28 35 32 33 35 34 33 34 34 33 32 32 32 31 33 33 33 33 32 31 31 30 29 30 30 31 31 31 32 33 33 34 36 36 36 36 36 36 36 35 34 35 36 36
32 31 23 21 23 25 33 30 34 37 37 32 31 32 31 31 31 31 32 33 32 31 28 29 30 30 29 29 31 32 33 33 33 32 32 33 34 34 34 35 35 35 36 36 36 35 34 36 36
31 30 34 30 31 26 33 36 36 35 31 33 31 30 30 30 30 31 31 29 27 27 28 29 29 29 29 32 32 31 32 32 33 33 33 33 34 34 35 34 33 33 33 33 34 34 34 35 38
34 35 27 27 12 21 27 29 26 33 32 32 30 30 31 32 31 29 26 26 25 26 27 27 29 30 31 30 30 31 31 33 34 34 34 35 36 36 35 32 31 31 31 31 30 31 34 35 37
33 31 33 32 29 12 16 22 34 34 30 29 29 29 31 29 27 25 24 25 25 25 25 28 29 31 29 30 32 33 34 34 34 34 35 36 36 36 35 34 34 33 30 28 29 32 31 34 35
35 34 33 20 26 29 19 19 33 34 29 29 29 31 28 24 24 23 24 25 25 26 26 27 31 29 30 32 34 34 34 34 34 35 35 36 36 36 35 36 36 36 34 32 32 31 31 33 34
Lifted_Index
5 5 4 3 2 2 1 0 0 1 2 2 2 2 2 1 0 0 1 2 2 3 3 3 4 4 5 5 6 6 7 7 8 8 9 9 9 9 9 9 9 9 9 9 10 10 11 11 12
6 5 4 3 2 2 1 1 1 2 2 2 2 2 2 1 1 1 2 2 3 3 3 4 4 4 5 6 6 6 7 8 8 8 9 9 9 9 9 10 9 9 10 10 10 10 11 13 13
6 5 4 3 2 2 1 1 1 2 2 2 2 2 2 1 1 2 2 2 3 4 4 4 4 5 5 6 6 7 7 8 8 8 9 9 10 10 10 10 10 10 10 10 10 11 13 14 14
5 4 3 2 2 2 2 2 2 2 2 2 2 2 2 2 2 2 2 2 3 4 4 3 4 5 5 6 6 7 8 8 8 8 8 9 10 10 11 11 11 10 10 10 11 12 14 15 15
4 4 3 2 2 2 3 3 2 2 1 1 1 2 2 2 2 2 2 2 2 3 3 3 4 4 5 6 6 7 8 8 8 8 9 9 10 10 11 11 11 11 10 10 11 12 14 15 15
4 4 3 3 2 3 3 3 2 1 1 1 1 1 2 2 2 1 1 1 2 3 3 3 4 4 5 5 6 7 7 8 8 8 9 9 10 11 10 11 11 11 11 11 11 12 13 14 14
4 4 4 3 3 3 4 3 2 1 1 1 1 1 1 1 1 1 1 1 2 3 3 3 4 4 5 5 6 7 7 7 8 9 9 10 10 11 10 10 12 12 12 12 12 12 13 14 14
4 4 3 3 3 4 4 4 3 2 1 1 1 1 1 1 1 1 1 1 2 2 3 4 4 5 5 6 6 7 7 7 8 9 10 10 11 11 10 11 12 13 13 12 12 12 13 13 13
5 4 3 3 3 4 5 4 3 2 1 1 1 1 0 0 0 1 1 1 1 2 3 4 4 5 5 6 6 7 7 8 8 9 10 10 10 10 10 10 11 12 13 12 12 12 12 13 13
5 4 3 3 4 4 4 4 4 3 2 1 0 0 0 0 0 0 0 1 1 2 3 4 4 5 5 6 6 7 8 8 8 9 9 9 9 9 9 10 10 11 12 12 11 11 12 13 14
5 5 4 4 4 4 4 4 4 3 2 1 0 0 -0 -0 -0 -0 0 0 1 2 3 3 4 4 5 5 6 7 7 7 7 7 7 7 8 8 8 8 9 9 10 10 10 10 10 12 13
5 5 4 4 4 4 4 4 3 3 2 1 0 -0 -0 -1 -1 -1 -0 0 1 1 2 3 3 4 5 5 5 6 6 6 5 5 5 5 6 6 6 7 7 8 8 9 9 9 10 10 11
5 4 4 4 4 4 3 3 3 3 2 1 -0 -0 -1 -1 -1 -1 -1 -0 0 1 2 2 3 3 4 5 5 4 4 4 4 4 4 4 4 5 5 6 6 7 8 8 9 9 9 10 10
5 4 3 3 3 3 3 3 3 3 2 1 0 -1 -1 -1 -1 -1 -1 -0 0 1 1 2 3 3 4 4 4 4 4 3 3 3 3 3 4 4 5 5 6 7 7 8 8 9 9 10 10
4 3 3 2 2 3 3 3 3 3 2 1 0 -0 -1 -1 -1 -1 -1 -0 0 1 1 2 3 4 4 4 4 4 4 3 3 3 3 3 4 4 5 5 6 6 7 7 8 9 9 10 10
3 3 2 2 2 2 2 2 2 2 2 1 0 -0 -1 -2 -2 -2 -1 -1 0 1 2 2 3 4 4 4 3 3 4 4 4 4 4 4 4 4 5 5 5 6 6 7 7 8 9 9 9
3 2 2 2 2 2 2 2 2 2 1 0 -0 -1 -1 -1 -1 -1 -0 0 1 2 2 3 3 3 3 3 3 3 4 4 4 4 4 4 4 4 5 5 5 5 6 6 7 7 8 9 8
3 3 2 2 2 2 1 1 2 1 1 0 -0 -1 -1 -1 -1 1 1 2 2 3 3 3 3 3 3 3 3 4 3 3 3 3 3 4 4 4 5 5 5 5 6 6 6 7 8 9 8
3 3 3 3 2 2 1 1 1 1 1 1 0 -0 -1 -1 0 2 2 3 3 3 3 3 3 3 3 3 3 3 3 3 3 3 3 3 4 4 5 5 6 6 6 6 6 7 8 9 9
4 4 4 4 3 2 1 0 1 1 2 1 1 1 0 0 1 2 2 3 3 3 3 3 3 3 3 3 3 3 3 3 3 3 3 4 5 6 6 7 7 7 7 7 7 8 9 10 10
4 4 5 4 3 2 1 0 1 1 2 2 2 2 1 1 2 2 2 2 3 3 3 3 3 3 3 4 4 4 4 4 5 5 6 6 7 7 8 9 9 9 8 8 8 9 10 10 11
4 5 5 4 3 2 0 0 1 1 2 2 2 2 2 2 2 2 2 3 3 3 3 3 3 4 5 5 6 7 7 7 8 8 9 9 9 9 10 10 11 11 11 10 10 10 10 11 11
4 5 4 4 3 2 1 0 1 1 1 2 2 3 3 3 3 3 3 3 3 4 4 4 5 5 6 8 9 9 10 10 10 10 11 11 11 11 11 12 12 12 12 12 12 11 11 11 12
4 4 3 2 2 2 1 1 1 1 2 2 3 3 3 3 3 3 3 4 4 4 4 5 6 7 8 9 10 11 11 11 11 12 12 12 12 12 13 13 13 13 13 13 13 12 12 12 12
4 3 2 1 1 1 1 1 2 2 2 3 3 3 3 3 3 3 3 3 4 4 5 6 8 9 10 11 12 12 12 13 13 13 13 13 13 13 13 13 13 13 13 14 14 14 13 12 12
3 3 2 1 1 2 2 2 2 3 3 3 3 3 3 3 3 3 3 3 4 5 7 8 10 11 12 12 13 13 13 13 13 13 13 13 13 13 13 13 13 13 13 13 14 14 14 13 13
3 3 2 2 2 2 2 3 3 3 3 3 3 3 3 3 3 3 4 5 6 7 9 10 11 12 13 13 13 13 13 13 13 13 13 13 13 13 13 12 12 12 12 13 13 13 13 13 13
4 3 3 3 2 1 2 3 3 3 3 3 3 3 2 3 3 4 5 6 7 8 10 11 12 13 13 14 14 13 13 13 13 13 13 13 13 12 12 12 12 12 12 12 12 12 13 13 13
4 4 3 2 2 1 2 3 3 3 3 3 3 3 3 3 4 5 6 7 8 9 11 12 13 14 14 14 13 13 13 12 12 12 12 12 12 12 11 11 11 11 11 12 12 12 12 12 12
4 4 3 2 2 2 2 3 3 3 3 3 3 3 3 3 5 6 7 8 8 10 11 12 13 14 14 13 13 12 12 12 12 11 11 11 11 11 11 11 11 11 11 11 12 12 12 12 12